This is the latest recevied weather packets stored in our database for station/object N6WDO. If no packets are shown the sender has not sent any weather packets the latest 10 day(s).
| Time | Temp. | Humidity | Pressure | Rain* | Wind** | Luminosity | Snow |
|---|---|---|---|---|---|---|---|
| 1777865115 | 16.67° C | 65% | 1013 hPa | 0 mm | - | 0 W/m² | - |
| 1777864812 | 16.67° C | 65% | 1013 hPa | 0 mm | - | 0 W/m² | - |
| 1777864509 | 17.22° C | 65% | 1013 hPa | 0 mm | - | 0 W/m² | - |
| 1777864205 | 17.22° C | 64% | 1012.8 hPa | 0 mm | - | 0 W/m² | - |
| 1777863903 | 16.67° C | 65% | 1012.5 hPa | 0 mm | - | 0 W/m² | - |
| 1777863599 | 17.22° C | 64% | 1013 hPa | 0 mm | - | 0 W/m² | - |
| 1777863296 | 17.22° C | 64% | 1012.7 hPa | 0 mm | - | 1 W/m² | - |
| 1777862993 | 17.22° C | 63% | 1012.8 hPa | 0 mm | - | 2 W/m² | - |
| 1777862689 | 17.78° C | 62% | 1012.6 hPa | 0 mm | - | 3 W/m² | - |
| 1777862387 | 17.78° C | 62% | 1012.4 hPa | 0 mm | - | 4 W/m² | - |
| 1777862084 | 17.78° C | 62% | 1012.4 hPa | 0 mm | - | 5 W/m² | - |
| 1777861779 | 17.78° C | 62% | 1012.4 hPa | 0 mm | - | 7 W/m² | - |
| 1777861475 | 17.78° C | 61% | 1012.3 hPa | 0 mm | - | 8 W/m² | - |
| 1777861172 | 18.33° C | 60% | 1012.3 hPa | 0 mm | - | 8 W/m² | - |
| 1777860870 | 18.33° C | 60% | 1012.3 hPa | 0 mm | - | 11 W/m² | - |
| 1777860566 | 18.89° C | 60% | 1012.1 hPa | 0 mm | - | 16 W/m² | - |
| 1777860263 | 18.89° C | 60% | 1012.1 hPa | 0 mm | - | 33 W/m² | - |
| 1777859960 | 18.89° C | 59% | 1012 hPa | 0 mm | - | 46 W/m² | - |
| 1777859655 | 18.89° C | 60% | 1012.3 hPa | 0 mm | - | 39 W/m² | - |
| 1777859352 | 18.89° C | 58% | 1012.2 hPa | 0 mm | - | 41 W/m² | - |
| 1777859048 | 18.89° C | 59% | 1012 hPa | 0 mm | - | 41 W/m² | - |
| 1777858744 | 18.89° C | 59% | 1012 hPa | 0 mm | - | 38 W/m² | - |
| 1777858443 | 19.44° C | 56% | 1012.1 hPa | 0 mm | - | 40 W/m² | - |
| 1777858139 | 20° C | 56% | 1012 hPa | 0 mm | - | 49 W/m² | - |
| 1777857836 | 20° C | 56% | 1012 hPa | 0 mm | - | 69 W/m² | - |
* Rain latest hour (hover to see other rain measurements)
** Current wind speed in m/s (hover to see current wind gust speed)